Weather History for NFNA - January, 2009

Change the Weather History Date:

Wednesday, January 28, 2009

  Actual Average Record
Temperature  
Mean Temperature 78 °F -  
Max Temperature 82 °F - - ()
Min Temperature 75 °F - - ()
Cooling Degree Days 14    
Growing Degree Days 28 (Base 50)    
Moisture  
Dew Point 75 °F    
Average Humidity 91    
Maximum Humidity 100    
Minimum Humidity 79    
Precipitation  
Precipitation 2.05 in - - ()
Sea Level Pressure  
Sea Level Pressure 29.69 in    
Wind  
Wind Speed 4 mph ()    
Max Wind Speed 9 mph    
Max Gust Speed -    
Visibility 12.1 miles    
Events Rain , Thunderstorm    
T = Trace of Precipitation, MM = Missing Value Source: Averaged Metar Reports

Daily Weather History Graph

Daily Weather History Graph

Search for Another Location

Airport or City:

Trip Planner

Search our weather history database for the weather conditions in past years. The results will help you decide how hot, cold, wet, or windy it might be!

Date:

Astronomy

Jan. 28, 2009 Rise Set
Actual Time 5:50 AM FJT 6:46 PM FJT
Civil Twilight 5:26 AM FJT 7:10 PM FJT
Nautical Twilight 4:59 AM FJT 7:37 PM FJT
Astronomical Twilight 4:31 AM FJT 8:05 PM FJT
Moon 7:05 AM FJT (1/28) 7:55 PM FJT (1/28)
Length of Visible Light 13h 43m
Length of Day
12h 56m
Waxing Crescent, 3% of the Moon is Illuminated
Jan 28
Waxing Crescent
Feb 3
First Quarter
Feb 10
Full
Feb 17
Last Quarter
Feb 25
New

Hourly Weather History & Observations

Time (FJT) Temp. Heat Index Dew Point Humidity Pressure Visibility Wind Dir Wind Speed Gust Speed Precip Events Conditions
12:00 AM 77 °F - 74 °F 89% 29.72 in 12 mi SW 4.6 mph - -   Partly Cloudy
12:00 AM 77.0 °F - 75.2 °F 94% 29.71 in 18.6 mi SW 4.6 mph - N/A   Scattered Clouds
1:00 AM 77.0 °F - 73.4 °F 89% 29.68 in 24.9 mi Calm Calm - N/A   Scattered Clouds
2:00 AM 77.0 °F - 73.4 °F 89% 29.68 in 24.9 mi SSE 8.1 mph - N/A   Scattered Clouds
3:00 AM 78.8 °F - 73.4 °F 83% 29.65 in 24.9 mi South 6.9 mph - N/A   Scattered Clouds
4:00 AM 78.8 °F - 73.4 °F 83% 29.65 in 24.9 mi Calm Calm - N/A   Scattered Clouds
5:00 AM 78.8 °F - 73.4 °F 83% 29.65 in 24.9 mi South 4.6 mph - N/A   Mostly Cloudy
6:00 AM 78 °F - 74 °F 84% 29.68 in 12 mi South 8.1 mph - -   Partly Cloudy
6:00 AM 78.8 °F - 73.4 °F 83% 29.68 in 28.0 mi South 8.1 mph - N/A   Mostly Cloudy
7:00 AM 78.8 °F - 73.4 °F 83% 29.68 in 31.1 mi South 5.8 mph - N/A   Scattered Clouds
8:00 AM 80.6 °F 85.4 °F 73.4 °F 79% 29.68 in 28.0 mi SSE 9.2 mph - N/A   Scattered Clouds
9:00 AM 79 °F - 76 °F 90% 29.70 in 12 mi SSE 4.6 mph - - Rain Light Rain Showers
9:00 AM 78.8 °F - 77.0 °F 94% 29.68 in 24.9 mi SSE 4.6 mph - N/A Rain Light Rain Showers
10:00 AM 82.4 °F 90.9 °F 77.0 °F 84% 29.68 in 31.1 mi South 5.8 mph - N/A   Mostly Cloudy
11:00 AM 78.8 °F - 77.0 °F 94% 29.68 in 28.0 mi SE 5.8 mph - N/A   Mostly Cloudy
12:00 PM 82 °F - 76 °F 79% 29.68 in 12 mi ESE 6.9 mph - - Rain Light Rain Showers
12:00 PM 82.4 °F 90.9 °F 77.0 °F 84% 29.68 in 18.6 mi ESE 6.9 mph - N/A Rain Light Rain Showers
12:20 PM 80.6 °F 87.1 °F 77.0 °F 89% 29.68 in 1.9 mi SE 6.9 mph - N/A Rain Heavy Rain Showers
12:45 PM 80.6 °F 87.1 °F 77.0 °F 89% 29.68 in 4.3 mi SSE 4.6 mph - N/A Rain Light Rain Showers
1:00 PM 77.0 °F - 77.0 °F 100% 29.68 in 6.2 mi Calm Calm - N/A Rain Light Rain Showers
2:00 PM 75.2 °F - 75.2 °F 100% 29.68 in 12.4 mi South 8.1 mph - N/A Rain Light Rain Showers
3:00 PM 76 °F - 76 °F 98% 29.68 in 12 mi SSE 6.9 mph - - Rain Light Rain Showers
3:00 PM 77.0 °F - 75.2 °F 94% 29.68 in 24.9 mi SSE 6.9 mph - N/A Rain Light Rain Showers
4:00 PM 77.0 °F - 75.2 °F 94% 29.65 in 24.9 mi Calm Calm - N/A Rain Light Rain Showers
5:00 PM 77.0 °F - 75.2 °F 94% 29.65 in 24.9 mi Calm Calm - N/A Rain Light Rain Showers
6:00 PM 76 °F - 76 °F 98% 29.70 in 12 mi Calm Calm - - Rain , Thunderstorm Thunderstorms and Rain
6:00 PM 77.0 °F - 75.2 °F 94% 29.68 in 24.9 mi Calm Calm - N/A Rain , Thunderstorm Light Thunderstorms and Rain
7:00 PM 77.0 °F - 75.2 °F 94% 29.71 in 24.9 mi Calm Calm - N/A Thunderstorm Light Thunderstorm
8:00 PM 77.0 °F - 75.2 °F 94% 29.71 in 18.6 mi Calm Calm - N/A Rain Light Rain Showers
9:00 PM 76 °F - 75 °F 95% 29.76 in 12 mi Calm Calm - - Rain Light Rain Showers
9:00 PM 77.0 °F - 75.2 °F 94% 29.74 in 18.6 mi Calm Calm - N/A Rain Light Rain Showers
10:00 PM 75.2 °F - 75.2 °F 100% 29.74 in 18.6 mi NNW 5.8 mph - N/A Rain , Thunderstorm Light Thunderstorms and Rain
11:00 PM 75.2 °F - 75.2 °F 100% 29.77 in 4.3 mi Calm Calm - N/A Rain , Thunderstorm Thunderstorms and Rain